Location: Clover
(42.5131°N, 114.6874°W)
Time: 14:43:52
(UTC+00:00)

ARIANE 6 FM1 Upper Stage - Pass Details

Date: 26 January 2026
Orbit: 522 x 608 km, 62.0° (Epoch: 17 February)

Event Time Altitude Azimuth Distance (km) Brightness Sun altitude
Rises 03:10:57 0° 268° (W) 2,695 7.5 -27.1°
Reaches altitude 10° 03:14:07 10° 294° (WNW) 1,790 6.0 -27.6°
Maximum altitude 03:16:17 14° 327° (NNW) 1,542 5.2 -28.0°
Enters shadow 03:16:49 14° 336° (NNW) 1,557 5.1 -28.1°
